• In Netherlands
  • List of Countries
  • For 7 days
  • Water Temperature
  • Satellite Maps
  • Weather Map
  • Weather Widgets
  • user-avatar
    Login

    Hourly Weather Vitebsk

    Today, 30 March, Thursday

    Time Temperature Precipitation Wind Pressure Humidity
    00:00 -2°C° 0 mm 3 mps 745 mmHg 83%
    01:00 -4°C° 0 mm 3 mps 745 mmHg 82%
    02:00 -4°C° 0 mm 3 mps 746 mmHg 80%
    03:00 -5°C° 0 mm 3 mps 746 mmHg 79%
    04:00 -5°C° 0 mm 3 mps 747 mmHg 77%
    05:00 -5°C° 0 mm 3 mps 747 mmHg 75%
    06:00 -4°C° 0 mm 3 mps 748 mmHg 68%
    07:00 -4°C° 0 mm 4 mps 749 mmHg 60%
    08:00 -3°C° 0 mm 4 mps 749 mmHg 53%
    09:00 -2°C° 0 mm 4 mps 750 mmHg 49%
    10:00 -1°C° 0 mm 4 mps 751 mmHg 45%
    11:00 0°C° 0 mm 4 mps 751 mmHg 42%
    12:00 +1°C° 0 mm 5 mps 751 mmHg 42%
    13:00 +1°C° 0 mm 5 mps 752 mmHg 42%
    14:00 +1°C° 0 mm 5 mps 752 mmHg 43%
    15:00 +1°C° 0 mm 4 mps 752 mmHg 46%
    16:00 +2°C° 0 mm 3 mps 752 mmHg 49%
    17:00 +2°C° 0 mm 3 mps 753 mmHg 53%
    18:00 +1°C° 0 mm 2 mps 753 mmHg 57%
    19:00 -1°C° 0 mm 2 mps 753 mmHg 61%
    20:00 -1°C° 0 mm 1 mps 754 mmHg 65%
    21:00 0°C° 0 mm 1 mps 754 mmHg 64%
    22:00 0°C° 0 mm 1 mps 754 mmHg 62%
    23:00 -2°C° 0 mm 2 mps 754 mmHg 61%

    Tomorrow, 31 March, Friday

    Time Temperature Precipitation Wind Pressure Humidity
    00:00 -2°C° 0 mm 2 mps 754 mmHg 62%
    01:00 -2°C° 0 mm 2 mps 753 mmHg 63%
    02:00 -2°C° 0 mm 3 mps 753 mmHg 63%
    03:00 -2°C° 0.1 mm 3 mps 753 mmHg 66%
    04:00 -1°C° 0.1 mm 3 mps 752 mmHg 69%
    05:00 -2°C° 0.1 mm 4 mps 751 mmHg 72%
    06:00 -2°C° 0.5 mm 5 mps 750 mmHg 76%
    07:00 -2°C° 0.5 mm 6 mps 749 mmHg 80%
    08:00 -2°C° 0.5 mm 7 mps 748 mmHg 85%
    09:00 -2°C° 1.6 mm 6 mps 747 mmHg 89%
    10:00 -2°C° 1.6 mm 6 mps 746 mmHg 92%
    11:00 -2°C° 1.6 mm 6 mps 745 mmHg 96%
    12:00 0°C° 1 mm 5 mps 745 mmHg 97%
    13:00 0°C° 1 mm 4 mps 744 mmHg 98%
    14:00 +2°C° 1 mm 3 mps 744 mmHg 99%
    15:00 +2°C° 0.1 mm 3 mps 744 mmHg 99%
    16:00 +2°C° 0.1 mm 3 mps 744 mmHg 99%
    17:00 +2°C° 0.1 mm 3 mps 744 mmHg 99%
    18:00 +2°C° 0 mm 3 mps 745 mmHg 99%
    19:00 +2°C° 0 mm 3 mps 745 mmHg 99%
    20:00 +1°C° 0 mm 3 mps 746 mmHg 99%
    21:00 +2°C° 0 mm 2 mps 746 mmHg 99%
    22:00 +2°C° 0 mm 2 mps 747 mmHg 98%
    23:00 +1°C° 0 mm 2 mps 747 mmHg 98%

    Day after tomorrow, 1 April, Saturday

    Time Temperature Precipitation Wind Pressure Humidity
    00:00 +1°C° 0 mm 2 mps 748 mmHg 98%
    01:00 +2°C° 0 mm 1 mps 748 mmHg 98%
    02:00 +1°C° 0 mm 1 mps 748 mmHg 97%
    03:00 0°C° 0 mm 1 mps 749 mmHg 97%
    04:00 0°C° 0 mm 1 mps 749 mmHg 97%
    05:00 -1°C° 0 mm 1 mps 749 mmHg 97%
    06:00 0°C° 0 mm 1 mps 749 mmHg 96%
    07:00 +2°C° 0 mm 1 mps 750 mmHg 96%
    08:00 +3°C° 0 mm 1 mps 750 mmHg 95%
    09:00 +3°C° 0 mm 2 mps 750 mmHg 94%
    10:00 +4°C° 0 mm 2 mps 750 mmHg 93%
    11:00 +4°C° 0 mm 3 mps 750 mmHg 91%
    12:00 +4°C° 0 mm 3 mps 750 mmHg 91%
    13:00 +5°C° 0 mm 3 mps 750 mmHg 90%
    14:00 +6°C° 0 mm 4 mps 750 mmHg 89%
    15:00 +6°C° 0 mm 4 mps 749 mmHg 91%
    16:00 +6°C° 0 mm 4 mps 749 mmHg 94%
    17:00 +6°C° 0 mm 4 mps 749 mmHg 96%
    18:00 +6°C° 0 mm 4 mps 748 mmHg 97%
    19:00 +6°C° 0 mm 4 mps 748 mmHg 97%
    20:00 +6°C° 0 mm 5 mps 748 mmHg 97%
    21:00 +7°C° 0.2 mm 5 mps 748 mmHg 97%
    22:00 +7°C° 0.2 mm 5 mps 747 mmHg 97%
    23:00 +7°C° 0.2 mm 5 mps 747 mmHg 97%

    2 April, Sunday

    Time Temperature Precipitation Wind Pressure Humidity
    00:00 +7°C° 0.1 mm 5 mps 747 mmHg 97%
    01:00 +7°C° 0.1 mm 5 mps 746 mmHg 97%
    02:00 +7°C° 0.1 mm 5 mps 746 mmHg 96%
    03:00 +7°C° 0 mm 5 mps 746 mmHg 97%
    04:00 +7°C° 0 mm 4 mps 746 mmHg 97%
    05:00 +6°C° 0 mm 4 mps 746 mmHg 97%
    06:00 +7°C° 0 mm 4 mps 746 mmHg 95%
    07:00 +8°C° 0 mm 4 mps 746 mmHg 93%
    08:00 +10°C° 0 mm 4 mps 746 mmHg 92%
    09:00 +10°C° 0 mm 5 mps 746 mmHg 88%
    10:00 +12°C° 0 mm 5 mps 746 mmHg 84%
    11:00 +14°C° 0 mm 5 mps 747 mmHg 80%
    12:00 +14°C° 0.2 mm 5 mps 747 mmHg 78%
    13:00 +15°C° 0.2 mm 5 mps 746 mmHg 77%
    14:00 +15°C° 0.2 mm 5 mps 746 mmHg 75%
    15:00 +14°C° 0.5 mm 4 mps 746 mmHg 78%
    16:00 +14°C° 0.5 mm 4 mps 746 mmHg 81%
    17:00 +13°C° 0.5 mm 3 mps 746 mmHg 85%
    18:00 +13°C° 0.2 mm 2 mps 746 mmHg 88%
    19:00 +10°C° 0.2 mm 2 mps 746 mmHg 91%
    20:00 +9°C° 0.2 mm 2 mps 746 mmHg 95%
    21:00 +10°C° 0.1 mm 1 mps 746 mmHg 95%
    22:00 +9°C° 0.1 mm 1 mps 746 mmHg 96%
    23:00 +9°C° 0.1 mm 1 mps 746 mmHg 96%

    3 April, Monday

    Time Temperature Precipitation Wind Pressure Humidity
    00:00 +8°C° 0.2 mm 1 mps 745 mmHg 96%
    01:00 +8°C° 0.2 mm 1 mps 745 mmHg 96%
    02:00 +7°C° 0.2 mm 0 mps 745 mmHg 97%
    03:00 +8°C° 0.6 mm 1 mps 745 mmHg 97%
    04:00 +8°C° 0.6 mm 1 mps 745 mmHg 97%
    05:00 +8°C° 0.6 mm 1 mps 744 mmHg 97%
    06:00 +8°C° 0.8 mm 1 mps 744 mmHg 96%
    07:00 +8°C° 0.8 mm 1 mps 744 mmHg 95%
    08:00 +8°C° 0.8 mm 1 mps 744 mmHg 94%
    09:00 +9°C° 0.2 mm 1 mps 745 mmHg 91%
    10:00 +9°C° 0.2 mm 1 mps 745 mmHg 87%
    11:00 +10°C° 0.2 mm 1 mps 745 mmHg 84%
    12:00 +11°C° 0.2 mm 1 mps 745 mmHg 80%
    13:00 +12°C° 0.2 mm 1 mps 746 mmHg 77%
    14:00 +12°C° 0.2 mm 1 mps 746 mmHg 73%
    15:00 +12°C° 0.4 mm 2 mps 746 mmHg 77%
    16:00 +10°C° 0.4 mm 2 mps 747 mmHg 80%
    17:00 +10°C° 0.4 mm 2 mps 747 mmHg 83%
    18:00 +9°C° 0.3 mm 3 mps 748 mmHg 86%
    19:00 +8°C° 0.3 mm 3 mps 748 mmHg 90%
    20:00 +7°C° 0.3 mm 3 mps 749 mmHg 93%
    21:00 +7°C° 0.1 mm 3 mps 750 mmHg 93%
    22:00 +5°C° 0.1 mm 4 mps 750 mmHg 92%
    23:00 +5°C° 0.1 mm 4 mps 751 mmHg 92%

    4 April, Tuesday

    Time Temperature Precipitation Wind Pressure Humidity
    00:00 +4°C° 0 mm 4 mps 751 mmHg 92%
    01:00 +3°C° 0 mm 3 mps 752 mmHg 93%
    02:00 +2°C° 0 mm 3 mps 752 mmHg 93%
    03:00 +1°C° 0 mm 3 mps 752 mmHg 94%
    04:00 +1°C° 0 mm 3 mps 753 mmHg 95%
    05:00 0°C° 0 mm 3 mps 753 mmHg 95%
    06:00 +1°C° 0 mm 3 mps 753 mmHg 92%
    07:00 +1°C° 0 mm 3 mps 753 mmHg 89%
    08:00 +2°C° 0 mm 3 mps 754 mmHg 85%
    09:00 +3°C° 0 mm 3 mps 754 mmHg 80%
    10:00 +5°C° 0 mm 2 mps 754 mmHg 75%
    11:00 +6°C° 0 mm 2 mps 754 mmHg 70%
    12:00 +7°C° 0 mm 2 mps 753 mmHg 69%
    13:00 +8°C° 0 mm 2 mps 753 mmHg 67%
    14:00 +8°C° 0 mm 2 mps 753 mmHg 66%
    15:00 +8°C° 0 mm 3 mps 752 mmHg 69%
    16:00 +8°C° 0 mm 3 mps 752 mmHg 72%
    17:00 +7°C° 0 mm 3 mps 751 mmHg 75%
    18:00 +5°C° 0 mm 3 mps 751 mmHg 80%
    19:00 +4°C° 0 mm 3 mps 750 mmHg 85%
    20:00 +1°C° 0 mm 4 mps 750 mmHg 90%
    21:00 +1°C° 0 mm 4 mps 749 mmHg 91%
    22:00 +1°C° 0 mm 4 mps 749 mmHg 91%
    23:00 0°C° 0 mm 4 mps 748 mmHg 92%
    Show more